Home > Weather > St. Peter Port > Past weeks

Flag for Guernsey Weather for the Past 2 Weeks in St. Peter Port, Guernsey

Now
48 °F

Passing clouds.


Feels Like: 38 °F
Forecast: 48 / 52 °F
Wind: 44 mph from West

Location: Guernsey Airport

Current Time: Feb 8, 2016 at 5:05:41 AM

Latest Report: Feb 8, 2016 at 4:20 AM


Visibility: N/A

Pressure: 29.27 "Hg

Humidity: 66%

Dew point: 37 °F

Location of St. Peter PortLocation

Historic Weather in St. Peter Port — Graph

°F

St. Peter Port Temperature Yesterday

Maximum temperature yesterday: 50 °F (at 7:50 PM)
Minimum temperature yesterday: 43 °F (at 4:20 AM)
Average temperature yesterday: 46 °F

High & Low Weather Summary for the Past Weeks

 TemperatureHumidityPressure
High55 °F (Jan 25, 1:50 PM)100% (Jan 24, 3:50 AM)30.51 "Hg (Jan 24, 3:50 AM)
Low41 °F (Feb 3, 5:50 AM)53% (Feb 3, 7:50 AM)29.18 "Hg (Feb 6, 6:20 PM)
Average50 °F87%30.06 "Hg
* Reported Jan 24 3:50 AM — Feb 7 10:20 PM, St. Peter Port, Weather by CustomWeather, © 2016

Note: Actual official high and low records may vary slightly from our data, if they occured in-between our weather recording intervals... More about our weather records

Advertising

St. Peter Port Weather History for the Previous 24 Hours

 ConditionsComfort  
Time TempWeatherWind HumidityBarometerVisibility
10:20 PM
Sun, Feb 7
50 °FPartly cloudy.28 mph100%29.30 "Hg1 mi
9:50 PM50 °FPassing clouds.30 mph100%29.33 "Hg4 mi
9:20 PM50 °FPassing clouds.36 mph100%29.33 "Hg4 mi
8:50 PM50 °FPartly cloudy.36 mph94%29.33 "HgN/A
8:20 PM50 °FPartly cloudy.30 mph94%29.36 "HgN/A
7:50 PM50 °FDrizzle. Fog.30 mph94%29.39 "Hg2 mi
7:20 PM48 °FPartly cloudy.28 mph100%29.39 "Hg4 mi
6:50 PM48 °FDrizzle. Fog.29 mph94%29.42 "Hg3 mi
6:20 PM46 °FLight rain. Passing clouds.29 mph100%29.45 "Hg2 mi
5:50 PM46 °FLight rain. Passing clouds.29 mph93%29.45 "Hg4 mi
5:20 PM46 °FLight rain. Passing clouds.26 mph87%29.47 "Hg6 mi
4:50 PM46 °FRain. Partly sunny.26 mph87%29.47 "Hg5 mi
4:20 PM46 °FLight rain. Partly sunny.28 mph87%29.50 "HgN/A
3:50 PM46 °FLight rain. Broken clouds.26 mph87%29.53 "Hg4 mi
3:20 PM46 °FLight rain. Scattered clouds.25 mph82%29.53 "HgN/A
2:50 PM45 °FSprinkles. Scattered clouds.26 mph87%29.53 "HgN/A
2:20 PM48 °FScattered showers. Scattered clouds.25 mph66%29.53 "HgN/A
1:50 PM48 °FScattered showers. Scattered clouds.25 mph71%29.56 "HgN/A
1:20 PM46 °FPassing clouds.26 mph71%29.53 "HgN/A
12:50 PM48 °FScattered clouds.28 mph71%29.53 "HgN/A
12:20 PM45 °FScattered showers. Passing clouds.21 mph81%29.53 "HgN/A
11:50 AM46 °FScattered showers. Scattered clouds.26 mph71%29.53 "HgN/A
11:20 AM46 °FScattered showers. Scattered clouds.20 mph76%29.56 "HgN/A
10:50 AM45 °FSprinkles. Scattered clouds.26 mph76%29.53 "HgN/A
10:20 AM45 °FScattered showers. Passing clouds.25 mph76%29.53 "HgN/A
9:50 AM45 °FScattered showers. Passing clouds.24 mph66%29.50 "HgN/A
9:20 AM45 °FScattered showers. Passing clouds.24 mph71%29.50 "HgN/A
8:50 AM46 °FSprinkles. Scattered clouds.22 mph71%29.47 "HgN/A
8:20 AM45 °FScattered showers. Scattered clouds.24 mph71%29.47 "HgN/A
7:50 AM45 °FScattered showers. Scattered clouds.28 mph76%29.45 "HgN/A
7:20 AM46 °FPassing clouds.22 mph66%29.45 "HgN/A
6:50 AM45 °FPassing clouds.26 mph66%29.45 "HgN/A
6:20 AM45 °FScattered showers. Passing clouds.25 mph66%29.42 "HgN/A
5:50 AM45 °FSprinkles. Passing clouds.21 mph76%29.42 "HgN/A
5:20 AM43 °FScattered showers. Passing clouds.20 mph71%29.42 "HgN/A
Weather by CustomWeather, © 2016

See weather overviewHow to use our weather pages